Location: Homewood
(41.1836°S, 175.9581°E)
Time: 14:45:25
(UTC+00:00)

Meteor 1-4 Rocket - Visible Passes

Search period start: 12 July 2024 00:00
Search period end: 22 July 2024 00:00
Orbit: 350 x 372 km, 81.2° (Epoch: 11 July)

Date Brightness Start Highest point End Pass type
(mag) Time Alt. Az. Time Alt. Az. Time Alt. Az.
12 Jul 5.5 17:19:01 10° ENE 17:20:25 13° E 17:21:50 10° ESE visible
12 Jul 3.3 18:50:36 10° NW 18:52:50 20° WSW 18:55:08 10° SSW visible
13 Jul 5.4 05:58:28 10° WSW 06:00:03 14° W 06:01:37 10° WNW visible
13 Jul 2.9 17:46:46 10° N 17:49:34 48° E 17:52:26 10° SSE visible
14 Jul 3.3 18:16:09 10° NW 18:20:40 17° SSW 18:21:35 10° S visible
